Zurück zum Katalog

SKYCRAFT 4A

AktivWissenschaftSSO
NORAD 64897·PAYLOAD·🇦🇺 Australia

Gestartet Jul 23, 2025 von Vandenberg Space Force Base

Loading…

Nächste Überflüge (nächste 24 Stunden)

TLE

AktuellSource: Space-Track

Epoche: Sep 14, 2026, 02:57 UTC

1 64897U 25154J   26257.12338957  .00002918  00000-0  25534-3 0  9993
2 64897  97.6623 319.8652 0004032 345.6325  14.4781 14.97481811 60690

Verfolge SKYCRAFT 4A in Echtzeit mit AllMySat

Download on the App Store